When you browse on this site, cookies collect data to enhance your experience and personalize the content and advertising you see.
Visit our Privacy Policy to learn more. By continuing to use the site, you agree to this use of cookies and data.
  • In Hungary
  • List of Countries
  • For 7 days
  • Water Temperature
  • Weather Map
  • News
  • Weather Widgets
  • user-avatar
    Login

    Hourly Weather Medvedevo

    Today, 15 October, Tuesday

    Time Temperature Precipitation Wind Pressure Humidity
    00:00 +12°C° 0.1 mm 4 mps 737 mmHg 87%
    01:00 +11°C° 0.1 mm 4 mps 737 mmHg 87%
    02:00 +11°C° 0.1 mm 4 mps 738 mmHg 86%
    03:00 +11°C° 0 mm 4 mps 738 mmHg 86%
    04:00 +10°C° 0 mm 4 mps 739 mmHg 86%
    05:00 +10°C° 0 mm 4 mps 740 mmHg 87%
    06:00 +8°C° 0 mm 4 mps 741 mmHg 86%
    07:00 +8°C° 0 mm 4 mps 742 mmHg 85%
    08:00 +7°C° 0 mm 4 mps 743 mmHg 84%
    09:00 +7°C° 0 mm 4 mps 744 mmHg 82%
    10:00 +8°C° 0 mm 3 mps 744 mmHg 79%
    11:00 +8°C° 0 mm 3 mps 745 mmHg 77%
    12:00 +8°C° 0 mm 2 mps 746 mmHg 74%
    13:00 +8°C° 0 mm 2 mps 746 mmHg 70%
    14:00 +10°C° 0 mm 1 mps 747 mmHg 67%
    15:00 +9°C° 0 mm 1 mps 747 mmHg 71%
    16:00 +7°C° 0 mm 1 mps 747 mmHg 76%
    17:00 +6°C° 0 mm 1 mps 747 mmHg 80%
    18:00 +6°C° 0 mm 1 mps 748 mmHg 82%
    19:00 +5°C° 0 mm 1 mps 748 mmHg 84%
    20:00 +5°C° 0 mm 1 mps 748 mmHg 86%
    21:00 +4°C° 0 mm 2 mps 748 mmHg 87%
    22:00 +3°C° 0 mm 2 mps 748 mmHg 88%
    23:00 +3°C° 0 mm 2 mps 748 mmHg 89%

    Tomorrow, 16 October, Wednesday

    Time Temperature Precipitation Wind Pressure Humidity
    00:00 +3°C° 0 mm 2 mps 749 mmHg 90%
    01:00 +3°C° 0 mm 2 mps 749 mmHg 90%
    02:00 +3°C° 0 mm 2 mps 749 mmHg 90%
    03:00 +3°C° 0 mm 2 mps 749 mmHg 90%
    04:00 +3°C° 0 mm 2 mps 749 mmHg 90%
    05:00 +1°C° 0 mm 3 mps 749 mmHg 91%
    06:00 +2°C° 0 mm 3 mps 748 mmHg 89%
    07:00 +3°C° 0 mm 4 mps 748 mmHg 87%
    08:00 +3°C° 0 mm 4 mps 748 mmHg 85%
    09:00 +3°C° 0 mm 5 mps 748 mmHg 83%
    10:00 +6°C° 0 mm 5 mps 747 mmHg 81%
    11:00 +7°C° 0 mm 6 mps 747 mmHg 78%
    12:00 +7°C° 0 mm 5 mps 746 mmHg 78%
    13:00 +8°C° 0 mm 5 mps 745 mmHg 77%
    14:00 +9°C° 0 mm 5 mps 745 mmHg 77%
    15:00 +8°C° 0 mm 5 mps 744 mmHg 80%
    16:00 +8°C° 0 mm 5 mps 743 mmHg 83%
    17:00 +8°C° 0 mm 5 mps 743 mmHg 85%
    18:00 +8°C° 0 mm 5 mps 742 mmHg 87%
    19:00 +8°C° 0 mm 5 mps 742 mmHg 89%
    20:00 +8°C° 0 mm 5 mps 742 mmHg 90%
    21:00 +8°C° 0 mm 5 mps 741 mmHg 91%
    22:00 +9°C° 0 mm 5 mps 741 mmHg 92%
    23:00 +10°C° 0 mm 4 mps 741 mmHg 93%

    Day after tomorrow, 17 October, Thursday

    Time Temperature Precipitation Wind Pressure Humidity
    00:00 +10°C° 0 mm 4 mps 741 mmHg 92%
    01:00 +10°C° 0 mm 4 mps 740 mmHg 92%
    02:00 +10°C° 0 mm 4 mps 740 mmHg 92%
    03:00 +10°C° 0 mm 4 mps 740 mmHg 92%
    04:00 +10°C° 0 mm 4 mps 740 mmHg 91%
    05:00 +10°C° 0 mm 4 mps 740 mmHg 91%
    06:00 +10°C° 0 mm 4 mps 740 mmHg 91%
    07:00 +10°C° 0 mm 4 mps 740 mmHg 91%
    08:00 +10°C° 0 mm 4 mps 740 mmHg 90%
    09:00 +11°C° 0 mm 4 mps 740 mmHg 88%
    10:00 +12°C° 0 mm 4 mps 740 mmHg 86%
    11:00 +13°C° 0 mm 4 mps 740 mmHg 84%
    12:00 +13°C° 0 mm 4 mps 740 mmHg 81%
    13:00 +13°C° 0 mm 3 mps 740 mmHg 79%
    14:00 +13°C° 0 mm 3 mps 740 mmHg 76%
    15:00 +13°C° 0 mm 2 mps 740 mmHg 79%
    16:00 +12°C° 0 mm 1 mps 740 mmHg 83%
    17:00 +11°C° 0 mm 1 mps 740 mmHg 87%
    18:00 +11°C° 0 mm 1 mps 740 mmHg 87%
    19:00 +10°C° 0 mm 0 mps 740 mmHg 88%
    20:00 +10°C° 0 mm 0 mps 741 mmHg 88%
    21:00 +11°C° 0.4 mm 1 mps 741 mmHg 90%
    22:00 +11°C° 0.4 mm 1 mps 741 mmHg 91%
    23:00 +11°C° 0.4 mm 1 mps 741 mmHg 93%

    18 October, Friday

    Time Temperature Precipitation Wind Pressure Humidity
    00:00 +9°C° 0.3 mm 2 mps 741 mmHg 93%
    01:00 +9°C° 0.3 mm 3 mps 742 mmHg 93%
    02:00 +8°C° 0.3 mm 4 mps 742 mmHg 94%
    03:00 +7°C° 0.1 mm 4 mps 742 mmHg 93%
    04:00 +6°C° 0.1 mm 4 mps 743 mmHg 92%
    05:00 +6°C° 0.1 mm 4 mps 743 mmHg 91%
    06:00 +5°C° 0 mm 4 mps 744 mmHg 90%
    07:00 +5°C° 0 mm 4 mps 744 mmHg 89%
    08:00 +5°C° 0 mm 4 mps 745 mmHg 88%
    09:00 +5°C° 0 mm 4 mps 745 mmHg 87%
    10:00 +5°C° 0 mm 3 mps 746 mmHg 85%
    11:00 +5°C° 0 mm 3 mps 746 mmHg 83%
    12:00 +5°C° 0 mm 3 mps 746 mmHg 82%
    13:00 +5°C° 0 mm 3 mps 747 mmHg 82%
    14:00 +5°C° 0 mm 3 mps 747 mmHg 81%
    15:00 +5°C° 0 mm 3 mps 747 mmHg 81%
    16:00 +5°C° 0 mm 3 mps 747 mmHg 81%
    17:00 +5°C° 0 mm 3 mps 747 mmHg 82%
    18:00 +5°C° 0 mm 3 mps 747 mmHg 81%
    19:00 +5°C° 0 mm 3 mps 748 mmHg 81%
    20:00 +5°C° 0 mm 3 mps 748 mmHg 81%
    21:00 +5°C° 0 mm 2 mps 748 mmHg 82%
    22:00 +5°C° 0 mm 2 mps 748 mmHg 83%
    23:00 +5°C° 0 mm 2 mps 748 mmHg 84%

    19 October, Saturday

    Time Temperature Precipitation Wind Pressure Humidity
    00:00 +5°C° 0.1 mm 2 mps 748 mmHg 85%
    01:00 +5°C° 0.1 mm 2 mps 748 mmHg 87%
    02:00 +5°C° 0.1 mm 2 mps 748 mmHg 88%
    03:00 +5°C° 0.1 mm 2 mps 748 mmHg 89%
    04:00 +5°C° 0.1 mm 2 mps 748 mmHg 90%
    05:00 +5°C° 0.1 mm 2 mps 748 mmHg 91%
    06:00 +5°C° 0 mm 2 mps 748 mmHg 91%
    07:00 +6°C° 0 mm 2 mps 749 mmHg 91%
    08:00 +6°C° 0 mm 2 mps 749 mmHg 91%
    09:00 +6°C° 0 mm 2 mps 749 mmHg 89%
    10:00 +7°C° 0 mm 2 mps 749 mmHg 88%
    11:00 +8°C° 0 mm 2 mps 749 mmHg 86%
    12:00 +8°C° 0 mm 2 mps 749 mmHg 85%
    13:00 +9°C° 0 mm 2 mps 749 mmHg 85%
    14:00 +9°C° 0 mm 2 mps 749 mmHg 84%
    15:00 +9°C° 0 mm 2 mps 749 mmHg 86%
    16:00 +9°C° 0 mm 2 mps 749 mmHg 88%
    17:00 +9°C° 0 mm 2 mps 749 mmHg 90%
    18:00 +8°C° 0 mm 2 mps 749 mmHg 90%
    19:00 +8°C° 0 mm 2 mps 749 mmHg 91%
    20:00 +8°C° 0 mm 2 mps 750 mmHg 92%
    21:00 +8°C° 0 mm 2 mps 750 mmHg 93%
    22:00 +8°C° 0 mm 2 mps 750 mmHg 93%
    23:00 +8°C° 0 mm 2 mps 750 mmHg 94%

    20 October, Sunday

    Time Temperature Precipitation Wind Pressure Humidity
    00:00 +8°C° 0 mm 2 mps 750 mmHg 94%
    01:00 +8°C° 0 mm 2 mps 750 mmHg 94%
    02:00 +7°C° 0 mm 2 mps 750 mmHg 94%
    03:00 +7°C° 0 mm 2 mps 750 mmHg 94%
    04:00 +7°C° 0 mm 2 mps 750 mmHg 95%
    05:00 +7°C° 0 mm 2 mps 750 mmHg 95%
    06:00 +7°C° 0 mm 2 mps 750 mmHg 94%
    07:00 +8°C° 0 mm 2 mps 750 mmHg 92%
    08:00 +8°C° 0 mm 2 mps 751 mmHg 91%
    09:00 +9°C° 0 mm 2 mps 751 mmHg 88%
    10:00 +10°C° 0 mm 2 mps 751 mmHg 85%
    11:00 +12°C° 0 mm 2 mps 751 mmHg 81%
    12:00 +12°C° 0 mm 2 mps 751 mmHg 79%
    13:00 +13°C° 0 mm 2 mps 751 mmHg 77%
    14:00 +12°C° 0 mm 3 mps 751 mmHg 75%
    15:00 +12°C° 0 mm 2 mps 750 mmHg 80%
    16:00 +10°C° 0 mm 2 mps 750 mmHg 85%
    17:00 +9°C° 0 mm 2 mps 750 mmHg 90%
    18:00 +8°C° 0 mm 2 mps 750 mmHg 91%
    19:00 +8°C° 0 mm 3 mps 751 mmHg 92%
    20:00 +7°C° 0 mm 3 mps 751 mmHg 93%
    21:00 +7°C° 0 mm 3 mps 751 mmHg 92%
    22:00 +7°C° 0 mm 3 mps 751 mmHg 92%
    23:00 +5°C° 0 mm 3 mps 751 mmHg 91%
    Show more